Showing default

YAOGAN-30 V, 46808

Orbit data source: Space-Track

YAOGAN-30 V, 46808 is a payload satellite owned by PLA SSF (CN) in LEO that was launched on Mon, 26 Oct 2020 UTC via a CHANG ZHENG 2C launch vehicle from the Xichang Space Center, China (XSC). Payloads include a variety of satellites, spacecraft, and rockets equipped with specific instruments for various scientific and technological missions. These include communications satellites like Starlink; space stations such as the ISS; scientific satellites like the Hubble; Earth observation satellites from companies like Planet Labs, Umbra, and HawkEye 360; GPS; miniature CubeSats for education and research; and military/defense satellites.

Loading next visibility...
YAOGAN-30 V details
Identifier
46808, 2020-076B
Orbit
LEO
Last TLE update11 hours ago
Origin
Flag of CNPLA SSF (CN / PRC)
ManufacturerSECM
MissionOperational Defense Sigint
Bus & MotorUnknown
Mass~500 kg wet, ~500 kg dry
Launch date (UTC)
2020-10-26 (4 years ago)
Launch vehicle
CHANG ZHENG 2C
Launch site
Xichang Space Center, China (XSC)
Object type
Payload
Rocket body
Debris
Shape & HBRBox + 2 Pan, Unknown HBR
Radar Cross Section0.446 m², Large (>1 m²)

Expand to show TLE details & history

TLE from 11 hours ago
0 YAOGAN-30 V
1 46808U 20076B   24361.01640968  .00007362  00000-0  61220-3 0  9993
2 46808  34.9937 121.0617 0001387   1.8826 358.1886 14.98061980227348
Epoch: 2024-12-26T00:23Z
Definitive object data (Epoch: 2024-12-26T00:23:37.796Z)
Latitude
Longitude20.15236°
Altitude570.84 km
Speed7.578 km/s
True Right ascension08h 04m 14s
True Declination0° 00' 00"
Sunlit
Object was in full shadow at TLE epoch
Visualization TLE readout
Latitude-33.05471°
Longitude-50.18903°
Altitude581.022 km
Speed7.571 km/s
Apparent Right ascension01h 14m 39s
Apparent Declination-41° 54' 37"
Sunlit
Object is in daylight
Visualization observer readout
Local Sidereal Time10:37:42
Azimuth253.162° W
Elevation-60.541°
Doppler factor1
Orbital elements
Apogee altitude577.065 km
Perigee altitude575.136 km
Semi-major axis6,954.237 km
Eccentricity0.0001387
Inclination34.9937°
RAAN121.0617°
Arg. of periapsis1.8826°
True anomaly358.1881°
Mean anomaly358.1886°
Eccentric anomaly358.18835°
Mean motion3.74256 °/min
BSTAR0.0006122
Orbital period96.19 mins
Loading maneuver chart data...
Loading historical data...
Loading historical data...
Loading historical data...
Loading historical data...
Loading historical data...
Loading historical data...
Loading historical data...
Other satellites on launch #76 in the year 2020 (2020-10-26 UTC)

YAOGAN-30 V Visibility forecast

Observer location: undefined°, undefined

Span
Click to sort rows by Start time (UTC) header in descending order
Start Az.
Max El. time (UTC)
Max El. Az.
Max El.
End time (UTC)
End Az.
5 mins2024-12-26 11:49:23.341Z190.68° SSW2024-12-26 11:51:23.341Z157.332° SSE17.964°2024-12-26 11:54:23.341Z112.189° ESE
6 mins2024-12-26 13:30:23.341Z223.936° SW2024-12-26 13:32:23.341Z173.886° S31.722°2024-12-26 13:36:23.341Z103.474° ESE
6 mins2024-12-26 15:11:23.341Z243.609° WSW2024-12-26 15:13:23.341Z198.153° SSW32.237°2024-12-26 15:17:23.341Z119.329° SE
4 mins2024-12-26 16:53:23.341Z227.708° WSW2024-12-26 16:54:23.341Z209.285° SW19.41°2024-12-26 16:57:23.341Z158.776° S
|